Temperature
24 21 21 23 23 23 22 21 20 20 21 19 17 16 16 17 17 16 16 16 16 15 15 15 14 14 14 14 14 14 14 14 14 14 14 14 15 15 15 15 15 15 16 16
21 22 24 24 23 21 20 19 20 20 21 19 16 16 16 17 17 17 16 16 16 15 15 15 14 14 14 13 13 13 13 13 13 13 13 14 14 14 14 15 15 15 15 15
22 23 24 22 21 21 20 20 20 20 20 18 16 16 16 16 16 16 16 16 15 15 15 14 14 13 13 13 13 13 13 13 13 13 13 13 14 14 14 14 15 15 15 15
22 22 22 21 21 21 20 21 21 21 18 17 17 14 15 15 15 15 15 16 15 15 15 14 14 13 13 13 12 12 12 12 12 12 13 13 13 13 13 14 14 14 14 15
21 21 21 21 21 21 21 21 21 20 19 17 17 14 14 15 15 15 15 15 15 15 15 14 14 13 13 13 12 12 12 12 12 12 12 12 13 13 13 13 14 14 14 14
21 22 21 21 22 21 21 19 18 16 16 16 17 15 14 13 15 15 15 15 15 15 15 14 14 14 13 13 13 12 12 12 12 12 12 12 12 12 13 13 13 14 14 14
21 21 21 22 20 19 19 16 16 16 15 16 17 16 14 15 15 15 15 15 15 15 15 15 14 14 13 13 13 12 12 12 12 12 12 12 12 12 12 12 13 13 13 14
19 19 20 21 20 19 19 16 16 16 16 16 17 16 14 16 16 16 16 16 15 15 15 15 14 14 13 13 13 12 12 12 12 12 12 12 12 12 12 12 12 13 13 13
18 18 20 21 21 20 19 17 16 15 16 16 16 15 16 15 15 15 16 16 15 15 15 15 15 14 14 13 13 12 12 12 12 12 12 12 12 12 12 12 12 12 12 13
18 18 20 20 20 20 19 18 14 15 16 16 16 15 14 14 14 14 15 15 16 16 15 15 15 14 14 13 13 13 12 12 12 11 11 11 11 11 11 12 12 12 12 12
19 18 19 19 19 19 19 18 15 13 14 15 15 15 15 14 14 14 15 16 16 16 16 16 15 15 14 14 13 13 12 12 12 11 11 11 11 11 11 11 12 12 12 12
18 15 16 18 18 19 19 18 15 15 15 14 13 14 16 15 16 16 16 16 16 16 16 16 15 15 15 14 14 13 13 12 12 12 11 11 11 11 11 11 11 11 12 12
18 16 16 18 17 18 19 19 17 14 13 14 14 15 15 15 16 16 16 16 16 16 16 16 16 15 15 15 14 13 13 12 12 12 11 11 11 11 11 11 11 11 11 12
18 16 17 18 17 18 18 18 18 15 14 14 15 16 16 14 14 16 16 17 17 17 16 16 16 16 15 15 14 14 13 13 12 12 11 11 11 11 11 11 11 11 11 11
17 18 19 18 19 19 19 18 17 16 15 15 16 16 16 15 15 16 17 17 17 17 16 16 16 16 16 15 15 14 13 13 12 12 12 11 11 11 10 10 10 10 11 11
17 19 19 19 20 20 20 19 18 17 17 16 17 17 17 17 17 17 17 17 17 17 17 16 16 16 16 15 15 14 14 13 13 12 12 11 11 10 10 10 10 10 10 10
17 17 18 18 19 20 19 19 19 18 18 17 17 17 16 15 16 17 17 17 17 17 17 16 16 16 16 15 15 15 14 13 13 12 12 11 11 10 10 10 10 10 10 10
17 16 15 16 18 20 19 20 21 19 19 18 18 17 16 17 18 18 18 18 17 17 17 17 16 16 16 15 15 15 14 13 13 12 11 11 11 10 10 10 10 10 10 10
16 17 16 15 17 18 20 21 21 21 20 19 18 17 18 19 18 17 18 18 18 17 17 17 16 16 16 15 15 15 14 13 13 12 11 11 10 10 10 10 10 9 9 9
16 14 15 16 18 19 20 21 22 20 20 20 19 18 18 17 14 16 19 18 18 17 17 17 16 16 16 15 15 15 14 13 13 12 11 11 10 10 10 10 10 9 9 9
17 16 15 16 17 17 19 21 21 19 19 21 21 21 19 18 18 21 20 19 18 18 17 17 17 16 16 15 15 15 14 13 13 12 11 11 11 10 10 10 10 10 10 9
16 15 15 14 16 18 21 20 19 19 22 22 22 22 21 21 21 20 20 19 18 18 17 17 17 16 16 16 15 15 14 14 13 12 12 11 11 11 10 10 10 10 10 10
15 16 15 15 17 20 22 22 24 23 23 23 22 22 22 21 21 20 20 19 19 18 18 17 17 17 16 16 16 15 15 14 13 13 12 12 11 11 11 10 10 10 10 10
17 17 17 18 19 21 22 23 23 23 23 23 22 22 22 22 21 20 20 19 19 18 18 17 17 17 17 16 16 16 15 14 14 13 13 12 12 11 11 11 10 10 10 10
17 17 18 19 18 21 22 23 23 23 23 23 22 22 22 22 21 21 20 19 19 18 18 18 17 17 17 17 16 16 15 15 14 14 13 13 12 12 11 11 10 10 10 10
14 14 16 16 18 18 20 20 22 22 22 22 22 22 22 21 21 21 20 20 19 19 18 18 18 17 17 17 17 16 16 15 15 14 13 13 13 12 12 11 11 11 10 10
Wind_Speed
5 7 4 1 3 4 3 4 4 3 5 6 8 7 4 3 5 6 6 6 5 4 4 6 7 8 8 9 9 9 9 8 7 6 5 5 5 5 5 4 6 7 7 7
7 3 1 3 7 10 9 8 5 2 2 5 7 5 2 3 3 5 5 4 4 5 6 7 7 8 8 8 9 8 9 9 8 6 5 4 5 5 5 4 5 7 6 7
8 1 3 8 8 8 7 5 3 3 2 6 8 2 1 1 2 4 3 3 3 4 4 6 6 7 7 8 8 8 9 9 9 8 6 5 4 4 4 5 5 5 6 6
6 3 7 8 5 4 2 2 2 3 3 3 6 4 6 3 1 1 2 2 3 3 2 4 6 7 7 7 7 7 8 9 9 8 7 6 5 5 5 5 5 7 6 6
3 3 6 5 1 1 3 2 1 0 2 1 1 5 5 4 2 2 1 1 1 1 2 3 5 6 6 6 6 7 8 8 8 8 8 7 6 5 5 5 6 6 5 5
4 3 3 1 2 1 1 5 6 5 5 2 4 6 6 5 5 4 2 1 1 1 2 4 5 5 5 6 6 6 7 8 8 8 8 7 8 8 8 7 7 6 5 5
4 4 3 3 4 6 7 6 5 6 4 5 1 3 6 5 6 6 5 2 1 1 2 4 5 6 6 7 6 6 7 7 8 9 8 8 8 7 7 7 6 7 5 5
5 2 3 2 2 1 1 7 6 3 3 5 3 2 5 5 6 6 5 4 2 2 3 4 5 5 6 6 6 6 6 7 8 8 8 8 8 6 6 7 6 6 5 6
7 4 2 1 1 3 2 2 6 6 1 1 3 2 3 2 4 5 4 3 2 3 4 5 5 5 5 5 5 4 5 6 7 8 7 8 8 7 8 8 7 6 6 6
8 4 4 2 3 4 1 3 5 3 1 3 4 4 5 8 8 6 5 4 4 4 5 6 5 5 4 4 3 4 4 5 5 7 6 6 7 7 7 7 9 9 8 8
5 6 2 2 1 2 3 3 4 4 4 4 4 7 5 10 9 8 8 7 6 7 7 6 6 5 4 3 3 3 4 4 5 6 6 7 7 7 7 8 8 8 8 9
3 6 2 2 4 1 3 4 5 4 1 3 3 7 3 8 8 9 8 8 7 7 7 6 6 5 4 3 3 3 3 3 4 4 5 6 6 7 7 8 8 8 8 9
4 6 4 3 5 3 1 3 5 6 3 2 2 7 2 5 7 8 8 8 7 7 7 6 5 5 5 5 4 4 3 3 3 3 4 5 6 6 6 7 7 7 8 8
4 4 6 6 8 6 5 5 5 6 3 3 6 7 5 8 9 8 9 8 7 7 6 5 5 5 6 5 5 5 4 3 1 2 3 5 5 5 5 6 6 7 7 7
5 2 3 7 7 7 7 8 9 7 8 8 7 7 10 13 13 11 9 8 7 6 6 5 4 4 5 5 5 5 4 2 0 1 2 4 4 5 5 6 6 6 7 7
3 2 2 4 6 7 5 8 10 9 7 8 7 8 7 7 8 8 9 8 8 7 7 5 3 3 4 4 5 5 4 3 1 2 1 2 4 5 5 5 5 6 6 6
3 3 1 4 4 1 6 8 8 7 8 9 9 8 4 6 10 11 11 9 9 8 7 5 3 3 4 4 4 5 5 3 2 2 1 2 3 4 5 4 5 5 6 6
5 4 3 1 4 2 7 5 4 6 6 8 7 7 11 11 12 10 10 11 9 8 7 5 2 2 3 3 2 3 3 4 3 2 1 1 2 3 4 4 5 5 4 4
5 6 3 2 2 7 7 4 1 1 5 5 8 8 10 6 5 4 9 10 10 9 7 6 4 3 2 1 1 4 5 4 3 2 1 1 2 2 3 4 4 4 4 4
6 6 5 3 0 4 6 3 2 2 5 6 6 9 9 9 5 7 9 9 9 8 7 6 4 3 2 1 4 7 6 5 4 4 3 2 2 1 1 3 4 3 3 4
2 3 3 3 3 7 7 1 3 1 6 5 4 8 11 12 11 7 7 10 10 9 8 7 5 4 4 3 6 7 6 6 6 5 4 3 3 2 1 2 3 3 4 5
8 6 5 5 3 6 5 5 5 9 5 4 3 7 11 12 9 6 8 10 10 9 8 8 6 5 5 4 7 8 7 7 6 5 5 4 3 3 1 1 2 3 4 5
7 8 7 8 8 7 7 10 7 6 5 4 3 6 9 9 8 9 9 10 11 10 9 7 7 6 5 6 8 8 8 7 7 6 5 5 4 2 2 1 1 2 3 3
3 4 4 3 6 5 5 7 6 6 7 6 5 5 8 9 10 11 10 10 10 10 9 8 8 7 6 7 8 9 8 8 8 7 6 5 5 4 3 2 2 1 1 1
4 2 1 3 7 7 7 5 5 5 6 7 6 5 8 10 10 11 10 11 11 10 8 8 9 9 9 8 8 8 8 8 8 7 6 6 6 5 5 3 3 3 3 3
4 2 1 4 6 3 4 8 8 5 6 7 6 5 5 8 11 11 11 11 11 11 9 9 10 10 9 8 9 9 9 9 8 6 6 5 5 5 5 4 3 3 4 5
Wind_Direction
44 65 70 58 136 126 100 91 108 124 134 114 130 143 158 126 100 90 76 62 53 35 7 10 6 2 360 357 357 356 354 347 346 340 332 321 313 303 297 283 282 283 274 261
54 65 319 57 70 76 78 81 77 41 112 112 125 125 152 153 131 126 108 80 52 27 10 2 358 356 353 351 352 352 349 342 339 328 313 289 289 285 279 283 291 284 277 269
129 195 60 77 63 76 74 111 159 204 45 93 110 86 201 195 102 93 88 81 54 41 13 349 344 343 342 344 345 345 338 338 335 332 325 322 317 310 314 311 300 286 282 270
98 49 80 78 68 88 145 183 169 155 125 204 161 182 232 208 120 84 54 54 38 24 356 338 336 336 335 330 333 335 335 335 335 338 340 338 330 315 299 300 294 295 286 277
89 75 74 75 75 146 219 259 292 105 142 292 139 144 246 184 188 225 218 102 34 2 346 335 327 324 321 324 328 331 336 336 337 340 340 339 334 314 306 311 316 313 305 290
83 66 95 143 306 281 8 20 23 49 68 322 239 159 234 218 200 193 199 199 15 355 350 331 319 320 318 320 328 334 338 335 339 343 344 345 342 338 337 337 335 328 317 308
57 16 8 24 20 17 57 63 31 14 10 261 237 142 234 219 185 174 175 191 231 263 301 310 318 319 317 319 326 332 336 332 335 340 344 344 341 338 338 335 330 330 329 322
133 271 306 25 124 195 54 129 139 184 238 284 353 232 254 203 176 166 168 174 206 258 276 291 298 302 306 314 323 330 335 332 336 341 341 341 343 341 340 337 335 334 330 327
154 214 275 294 13 111 72 122 172 148 255 306 297 310 316 182 184 180 184 184 223 262 275 279 291 295 297 307 312 317 330 335 337 339 339 343 348 349 349 348 351 350 349 354
133 160 240 217 14 347 127 137 73 84 71 315 292 246 233 208 212 204 201 210 233 261 275 279 283 281 280 283 297 322 333 331 331 341 346 350 349 351 354 1 4 3 2 5
116 127 137 54 207 248 34 62 87 114 149 163 281 271 226 195 194 194 207 217 231 250 263 271 275 276 273 282 305 324 331 334 338 343 347 356 353 355 3 10 8 7 10 14
80 110 95 310 307 208 151 150 134 134 255 176 207 271 255 177 181 185 204 222 235 248 260 264 267 276 272 264 270 292 309 321 326 341 356 359 0 5 11 9 6 10 14 16
90 106 88 343 329 327 253 197 149 135 125 156 216 271 264 197 192 199 202 221 240 259 268 271 277 278 266 254 249 265 278 293 319 1 12 9 5 7 7 6 7 13 16 16
107 107 158 192 215 197 197 212 181 132 154 240 236 249 226 220 214 217 216 223 238 257 262 261 271 275 264 251 240 250 268 280 310 24 22 11 359 360 4 8 11 12 12 15
108 116 225 231 219 185 194 197 195 187 192 202 235 232 235 216 208 209 213 223 238 250 248 245 251 270 273 261 247 243 258 275 193 81 29 3 0 11 15 14 11 9 10 13
98 137 338 299 247 212 232 230 209 217 214 221 238 258 248 194 182 198 209 213 226 235 233 234 244 287 293 273 245 234 239 240 172 128 60 18 27 28 22 15 11 8 4 359
99 128 49 307 321 102 276 248 215 215 211 195 217 235 170 163 192 202 207 210 217 220 219 216 234 274 286 273 239 220 214 188 145 133 99 59 51 38 19 13 11 2 354 356
128 114 112 347 25 247 260 263 205 215 238 210 207 199 180 194 204 206 199 199 208 204 199 206 227 268 273 275 244 185 160 142 136 128 112 97 68 44 20 14 2 348 344 347
133 126 95 78 332 290 293 277 205 235 289 231 209 206 199 186 155 243 217 197 196 195 194 201 202 201 229 269 140 120 125 133 140 146 153 157 118 62 21 1 341 334 343 348
73 90 106 103 315 268 265 270 112 84 290 273 206 199 181 141 170 245 223 201 196 190 184 186 178 173 214 202 126 125 140 152 170 185 185 171 162 137 358 331 327 330 339 340
68 67 124 170 237 266 259 230 76 75 257 275 216 195 175 184 204 218 197 191 188 185 189 182 169 187 222 183 139 145 166 190 199 191 178 168 182 201 254 324 338 347 359 11
171 164 186 158 200 268 231 152 186 222 240 269 244 201 196 212 216 208 191 184 181 185 189 185 183 212 226 186 159 169 196 209 200 187 183 190 208 223 185 22 4 11 22 29
191 187 182 184 213 243 222 210 226 196 219 246 245 230 205 203 199 192 188 183 185 189 195 195 195 215 227 200 179 186 208 202 195 194 202 208 212 221 205 172 60 23 24 29
287 172 153 227 270 275 272 259 266 239 244 257 245 223 189 197 196 192 190 190 194 198 201 201 199 213 228 214 202 205 202 192 190 201 211 210 207 218 227 210 178 142 19 5
317 26 42 281 297 322 347 340 302 280 285 288 272 232 203 198 198 197 198 200 201 204 204 198 200 211 222 217 213 214 201 186 192 204 209 206 204 204 212 217 216 210 219 210
348 3 253 253 286 274 322 351 359 350 317 297 284 276 241 204 206 202 206 207 205 207 205 202 206 213 220 215 217 215 201 190 189 201 209 205 201 203 203 207 236 266 246 251
Height
1535 1542 1548 1545 1543 1544 1547 1552 1556 1554 1551 1557 1563 1567 1566 1565 1564 1564 1563 1562 1560 1559 1557 1554 1551 1547 1543 1540 1536 1532 1529 1525 1522 1519 1517 1514 1512 1511 1510 1509 1509 1508 1508 1508
1544 1547 1542 1540 1541 1544 1549 1556 1558 1555 1551 1557 1566 1569 1567 1566 1565 1564 1563 1562 1560 1559 1556 1554 1550 1546 1542 1539 1535 1531 1527 1524 1520 1517 1514 1512 1509 1507 1506 1505 1504 1503 1503 1503
1545 1545 1540 1542 1546 1549 1554 1557 1557 1557 1555 1559 1567 1574 1571 1567 1566 1565 1563 1562 1560 1558 1556 1553 1550 1546 1542 1538 1534 1531 1527 1523 1519 1516 1512 1510 1507 1504 1502 1500 1499 1498 1498 1498
1544 1543 1543 1546 1549 1550 1557 1551 1551 1554 1563 1570 1567 1584 1574 1569 1567 1565 1564 1562 1560 1558 1556 1553 1550 1546 1542 1539 1535 1531 1527 1523 1519 1515 1511 1508 1505 1502 1499 1497 1495 1494 1493 1493
1547 1545 1547 1550 1550 1548 1551 1547 1550 1553 1559 1567 1567 1579 1577 1569 1569 1566 1563 1561 1560 1558 1555 1553 1550 1546 1543 1539 1535 1531 1527 1523 1519 1515 1511 1508 1504 1501 1498 1495 1493 1491 1490 1489
1546 1546 1547 1548 1547 1547 1547 1551 1554 1560 1568 1577 1566 1575 1577 1571 1565 1564 1562 1561 1559 1557 1555 1553 1550 1546 1543 1539 1535 1532 1527 1523 1519 1515 1511 1508 1504 1501 1498 1494 1491 1489 1487 1486
1553 1551 1548 1547 1550 1550 1552 1566 1579 1579 1586 1581 1564 1569 1572 1562 1560 1560 1560 1560 1558 1557 1554 1552 1549 1546 1542 1539 1535 1532 1528 1524 1520 1516 1512 1508 1505 1501 1498 1494 1491 1488 1486 1484
1562 1565 1552 1549 1552 1555 1555 1564 1582 1587 1587 1580 1566 1570 1567 1559 1559 1559 1559 1559 1557 1556 1554 1551 1549 1546 1542 1539 1536 1532 1528 1524 1521 1517 1513 1510 1506 1502 1498 1495 1491 1488 1485 1483
1562 1563 1551 1550 1550 1551 1556 1562 1564 1577 1575 1580 1575 1570 1564 1560 1559 1559 1558 1558 1556 1555 1553 1550 1548 1545 1542 1539 1536 1532 1529 1525 1522 1518 1515 1511 1507 1504 1500 1496 1492 1489 1486 1483
1550 1561 1554 1551 1551 1551 1553 1557 1568 1574 1581 1586 1575 1572 1572 1562 1559 1558 1557 1556 1555 1554 1552 1549 1547 1544 1542 1539 1536 1532 1529 1526 1523 1519 1516 1512 1509 1505 1501 1498 1494 1490 1487 1484
1544 1558 1558 1555 1557 1557 1556 1559 1567 1576 1579 1586 1586 1576 1554 1554 1554 1555 1555 1554 1553 1552 1550 1548 1546 1544 1541 1538 1536 1533 1530 1526 1523 1520 1517 1513 1510 1506 1503 1499 1496 1492 1489 1485
1545 1558 1567 1560 1555 1552 1553 1557 1565 1576 1577 1579 1586 1576 1549 1549 1550 1552 1552 1552 1552 1550 1549 1547 1545 1543 1540 1538 1535 1533 1530 1527 1524 1521 1518 1514 1511 1508 1504 1500 1497 1494 1490 1487
1545 1557 1571 1568 1565 1557 1555 1554 1558 1568 1575 1578 1582 1571 1550 1549 1550 1550 1550 1550 1550 1549 1547 1546 1544 1542 1540 1537 1535 1533 1530 1527 1524 1521 1518 1515 1512 1508 1505 1502 1498 1495 1491 1488
1544 1554 1564 1567 1564 1555 1555 1554 1554 1563 1574 1573 1568 1560 1551 1549 1548 1548 1548 1548 1547 1547 1546 1545 1543 1541 1539 1537 1534 1532 1530 1527 1525 1522 1519 1515 1512 1509 1506 1503 1499 1496 1492 1489
1544 1552 1549 1549 1545 1545 1547 1549 1552 1556 1559 1564 1557 1551 1545 1542 1542 1544 1545 1545 1545 1545 1544 1543 1542 1540 1538 1536 1534 1532 1530 1527 1525 1522 1519 1516 1513 1510 1507 1504 1500 1497 1494 1490
1544 1548 1548 1548 1543 1543 1545 1544 1547 1549 1548 1549 1547 1545 1535 1535 1538 1541 1542 1543 1543 1543 1543 1542 1541 1539 1537 1535 1533 1531 1529 1527 1525 1522 1519 1516 1514 1511 1508 1504 1501 1498 1495 1492
1546 1550 1553 1557 1547 1545 1551 1540 1540 1541 1537 1540 1543 1538 1533 1535 1536 1537 1538 1539 1540 1540 1541 1540 1539 1538 1536 1534 1532 1530 1528 1527 1525 1522 1519 1517 1514 1511 1508 1505 1502 1499 1496 1494
1545 1551 1558 1559 1555 1559 1545 1529 1529 1532 1530 1529 1529 1529 1529 1530 1531 1533 1534 1536 1537 1538 1538 1538 1538 1537 1535 1533 1531 1529 1528 1526 1524 1522 1520 1517 1514 1512 1509 1506 1503 1501 1498 1495
1540 1547 1557 1564 1563 1556 1539 1529 1528 1531 1531 1525 1526 1525 1527 1529 1531 1532 1532 1533 1534 1535 1536 1536 1536 1535 1534 1533 1531 1529 1527 1526 1524 1522 1520 1517 1515 1512 1510 1507 1504 1502 1499 1496
1542 1546 1557 1562 1560 1558 1541 1528 1526 1531 1533 1523 1522 1523 1525 1528 1535 1530 1527 1529 1531 1532 1534 1534 1534 1534 1533 1532 1530 1528 1527 1526 1524 1522 1519 1517 1515 1513 1510 1508 1505 1503 1500 1497
1548 1552 1558 1561 1561 1552 1532 1527 1529 1541 1536 1521 1520 1520 1521 1523 1523 1523 1524 1526 1528 1530 1531 1532 1532 1532 1532 1531 1529 1528 1527 1525 1524 1522 1520 1518 1515 1513 1511 1508 1506 1503 1501 1498
1548 1554 1557 1562 1561 1551 1525 1526 1530 1528 1520 1519 1519 1518 1518 1518 1519 1521 1522 1523 1525 1527 1529 1529 1530 1530 1530 1529 1528 1527 1526 1524 1523 1521 1520 1518 1516 1514 1512 1509 1506 1504 1501 1499
1539 1538 1541 1544 1540 1526 1521 1520 1520 1519 1519 1518 1518 1517 1516 1516 1516 1518 1519 1521 1522 1524 1526 1527 1527 1528 1527 1527 1526 1525 1524 1523 1522 1520 1519 1518 1516 1514 1512 1510 1507 1505 1502 1499
1529 1528 1530 1531 1525 1522 1520 1519 1518 1518 1518 1517 1516 1515 1515 1514 1514 1515 1516 1518 1520 1521 1523 1524 1524 1525 1525 1525 1524 1523 1523 1521 1520 1519 1518 1517 1515 1514 1512 1510 1508 1506 1503 1500
1530 1527 1528 1527 1523 1520 1518 1517 1516 1516 1516 1515 1515 1514 1513 1512 1512 1513 1513 1515 1516 1518 1519 1520 1521 1521 1522 1522 1521 1521 1520 1519 1518 1517 1516 1515 1514 1513 1512 1510 1508 1506 1504 1501
1532 1532 1532 1530 1524 1523 1522 1519 1517 1515 1515 1514 1513 1512 1511 1511 1510 1510 1511 1512 1513 1514 1515 1516 1517 1517 1518 1518 1518 1518 1517 1517 1516 1515 1514 1513 1513 1512 1511 1509 1508 1506 1504 1502